When you browse on this site, cookies collect data to enhance your experience and personalize the content and advertising you see.
Visit our Privacy Policy to learn more. By continuing to use the site, you agree to this use of cookies and data.

Hourly Weather Kyrdzhali

Today, 4 July, Saturday

Time Temperature Precipitation Wind Pressure Humidity
00:00 +23°C° 0 mm 1 mps 724 mmHg 71%
01:00 +22°C° 0 mm 1 mps 724 mmHg 73%
02:00 +21°C° 0 mm 2 mps 724 mmHg 74%
03:00 +22°C° 0 mm 1 mps 724 mmHg 76%
04:00 +21°C° 0 mm 1 mps 724 mmHg 77%
05:00 +21°C° 0 mm 1 mps 724 mmHg 78%
06:00 +23°C° 0 mm 2 mps 724 mmHg 75%
07:00 +25°C° 0 mm 2 mps 725 mmHg 71%
08:00 +26°C° 0 mm 3 mps 725 mmHg 70%
09:00 +27°C° 0.5 mm 3 mps 725 mmHg 67%
10:00 +28°C° 0.5 mm 3 mps 725 mmHg 63%
11:00 +29°C° 0.5 mm 3 mps 725 mmHg 60%
12:00 +30°C° 0.9 mm 2 mps 725 mmHg 57%
13:00 +30°C° 0.9 mm 2 mps 725 mmHg 55%
14:00 +31°C° 0.9 mm 2 mps 725 mmHg 52%
15:00 +30°C° 0.4 mm 2 mps 725 mmHg 54%
16:00 +30°C° 0.4 mm 2 mps 724 mmHg 56%
17:00 +30°C° 0.4 mm 2 mps 724 mmHg 58%
18:00 +28°C° 1 mm 2 mps 724 mmHg 65%
19:00 +26°C° 1 mm 2 mps 724 mmHg 72%
20:00 +24°C° 1 mm 2 mps 724 mmHg 79%
21:00 +23°C° 1.2 mm 2 mps 724 mmHg 82%
22:00 +21°C° 1.2 mm 2 mps 724 mmHg 86%
23:00 +21°C° 1.2 mm 2 mps 724 mmHg 89%

Tomorrow, 5 July, Sunday

Time Temperature Precipitation Wind Pressure Humidity
00:00 +21°C° 0.2 mm 2 mps 724 mmHg 89%
01:00 +21°C° 0.2 mm 1 mps 724 mmHg 88%
02:00 +21°C° 0.2 mm 1 mps 724 mmHg 88%
03:00 +21°C° 0 mm 1 mps 724 mmHg 88%
04:00 +20°C° 0 mm 2 mps 724 mmHg 88%
05:00 +20°C° 0 mm 2 mps 724 mmHg 88%
06:00 +21°C° 0 mm 2 mps 724 mmHg 84%
07:00 +24°C° 0 mm 2 mps 724 mmHg 79%
08:00 +25°C° 0 mm 3 mps 724 mmHg 75%
09:00 +26°C° 0.1 mm 3 mps 724 mmHg 71%
10:00 +27°C° 0.1 mm 4 mps 724 mmHg 67%
11:00 +28°C° 0.1 mm 5 mps 725 mmHg 63%
12:00 +29°C° 0.2 mm 5 mps 724 mmHg 61%
13:00 +29°C° 0.2 mm 4 mps 724 mmHg 59%
14:00 +30°C° 0.2 mm 4 mps 724 mmHg 57%
15:00 +29°C° 0.5 mm 4 mps 723 mmHg 60%
16:00 +29°C° 0.5 mm 4 mps 723 mmHg 63%
17:00 +28°C° 0.5 mm 4 mps 723 mmHg 67%
18:00 +27°C° 0.3 mm 4 mps 722 mmHg 70%
19:00 +25°C° 0.3 mm 3 mps 722 mmHg 74%
20:00 +24°C° 0.3 mm 3 mps 722 mmHg 78%
21:00 +22°C° 0 mm 3 mps 723 mmHg 80%
22:00 +22°C° 0 mm 3 mps 723 mmHg 82%
23:00 +21°C° 0 mm 3 mps 723 mmHg 83%

Day after tomorrow, 6 July, Monday

Time Temperature Precipitation Wind Pressure Humidity
00:00 +21°C° 0 mm 3 mps 723 mmHg 85%
01:00 +20°C° 0 mm 2 mps 722 mmHg 86%
02:00 +20°C° 0 mm 2 mps 722 mmHg 87%
03:00 +20°C° 0 mm 3 mps 722 mmHg 88%
04:00 +20°C° 0 mm 3 mps 721 mmHg 88%
05:00 +20°C° 0 mm 3 mps 721 mmHg 88%
06:00 +21°C° 0 mm 3 mps 721 mmHg 84%
07:00 +23°C° 0 mm 4 mps 722 mmHg 79%
08:00 +25°C° 0 mm 4 mps 722 mmHg 75%
09:00 +26°C° 0 mm 5 mps 722 mmHg 71%
10:00 +28°C° 0 mm 5 mps 722 mmHg 67%
11:00 +29°C° 0 mm 5 mps 721 mmHg 63%
12:00 +30°C° 0 mm 5 mps 721 mmHg 58%
13:00 +32°C° 0 mm 5 mps 721 mmHg 54%
14:00 +33°C° 0 mm 5 mps 720 mmHg 49%
15:00 +32°C° 0 mm 5 mps 720 mmHg 51%
16:00 +32°C° 0 mm 5 mps 720 mmHg 53%
17:00 +32°C° 0 mm 4 mps 719 mmHg 54%
18:00 +29°C° 0 mm 4 mps 719 mmHg 60%
19:00 +27°C° 0 mm 3 mps 719 mmHg 65%
20:00 +25°C° 0 mm 3 mps 719 mmHg 70%
21:00 +25°C° 0.1 mm 3 mps 719 mmHg 74%
22:00 +24°C° 0.1 mm 2 mps 719 mmHg 78%
23:00 +23°C° 0.1 mm 2 mps 719 mmHg 82%

7 July, Tuesday

Time Temperature Precipitation Wind Pressure Humidity
00:00 +21°C° 0 mm 2 mps 719 mmHg 84%
01:00 +21°C° 0 mm 2 mps 719 mmHg 86%
02:00 +21°C° 0 mm 2 mps 719 mmHg 87%
03:00 +20°C° 0 mm 2 mps 719 mmHg 88%
04:00 +20°C° 0 mm 2 mps 718 mmHg 89%
05:00 +20°C° 0 mm 2 mps 718 mmHg 90%
06:00 +23°C° 0 mm 2 mps 719 mmHg 84%
07:00 +24°C° 0 mm 3 mps 719 mmHg 77%
08:00 +26°C° 0 mm 3 mps 719 mmHg 71%
09:00 +27°C° 0 mm 3 mps 719 mmHg 67%
10:00 +28°C° 0 mm 3 mps 719 mmHg 62%
11:00 +30°C° 0 mm 4 mps 720 mmHg 57%
12:00 +30°C° 0 mm 4 mps 720 mmHg 55%
13:00 +31°C° 0 mm 3 mps 720 mmHg 52%
14:00 +33°C° 0 mm 3 mps 720 mmHg 50%
15:00 +31°C° 0 mm 3 mps 720 mmHg 51%
16:00 +31°C° 0 mm 3 mps 720 mmHg 52%
17:00 +31°C° 0 mm 3 mps 720 mmHg 53%
18:00 +29°C° 0.2 mm 3 mps 720 mmHg 62%
19:00 +26°C° 0.2 mm 3 mps 720 mmHg 72%
20:00 +23°C° 0.2 mm 4 mps 720 mmHg 81%
21:00 +21°C° 0.9 mm 4 mps 721 mmHg 84%
22:00 +20°C° 0.9 mm 3 mps 721 mmHg 86%
23:00 +19°C° 0.9 mm 3 mps 722 mmHg 89%

8 July, Wednesday

Time Temperature Precipitation Wind Pressure Humidity
00:00 +18°C° 0.5 mm 3 mps 722 mmHg 88%
01:00 +18°C° 0.5 mm 3 mps 722 mmHg 88%
02:00 +17°C° 0.5 mm 3 mps 722 mmHg 87%
03:00 +17°C° 0.4 mm 3 mps 723 mmHg 86%
04:00 +17°C° 0.4 mm 3 mps 723 mmHg 86%
05:00 +16°C° 0.4 mm 3 mps 723 mmHg 85%
06:00 +17°C° 0 mm 3 mps 724 mmHg 80%
07:00 +18°C° 0 mm 4 mps 724 mmHg 76%
08:00 +19°C° 0 mm 4 mps 725 mmHg 71%
09:00 +20°C° 0 mm 4 mps 725 mmHg 68%
10:00 +21°C° 0 mm 5 mps 726 mmHg 64%
11:00 +22°C° 0 mm 5 mps 727 mmHg 61%
12:00 +22°C° 0 mm 4 mps 727 mmHg 61%
13:00 +22°C° 0 mm 4 mps 727 mmHg 62%
14:00 +22°C° 0 mm 3 mps 727 mmHg 62%
15:00 +22°C° 0 mm 4 mps 727 mmHg 62%
16:00 +22°C° 0 mm 4 mps 727 mmHg 62%
17:00 +22°C° 0 mm 5 mps 727 mmHg 62%
18:00 +21°C° 0 mm 4 mps 727 mmHg 67%
19:00 +20°C° 0 mm 3 mps 727 mmHg 72%
20:00 +18°C° 0 mm 3 mps 728 mmHg 76%
21:00 +17°C° 0 mm 2 mps 728 mmHg 77%
22:00 +17°C° 0 mm 2 mps 728 mmHg 78%
23:00 +16°C° 0 mm 1 mps 729 mmHg 79%

9 July, Thursday

Time Temperature Precipitation Wind Pressure Humidity
00:00 +16°C° 0 mm 1 mps 729 mmHg 80%
01:00 +15°C° 0 mm 1 mps 729 mmHg 81%
02:00 +15°C° 0 mm 1 mps 729 mmHg 81%
03:00 +15°C° 0 mm 1 mps 729 mmHg 83%
04:00 +15°C° 0 mm 1 mps 729 mmHg 84%
05:00 +14°C° 0 mm 1 mps 729 mmHg 85%
06:00 +16°C° 0 mm 2 mps 729 mmHg 80%
07:00 +18°C° 0 mm 2 mps 729 mmHg 75%
08:00 +20°C° 0 mm 2 mps 730 mmHg 69%
09:00 +21°C° 0 mm 2 mps 730 mmHg 64%
10:00 +22°C° 0 mm 3 mps 730 mmHg 59%
11:00 +24°C° 0 mm 3 mps 730 mmHg 54%
12:00 +25°C° 0 mm 3 mps 730 mmHg 51%
13:00 +26°C° 0 mm 3 mps 729 mmHg 48%
14:00 +26°C° 0 mm 4 mps 729 mmHg 45%
15:00 +26°C° 0 mm 4 mps 729 mmHg 46%
16:00 +26°C° 0 mm 4 mps 729 mmHg 47%
17:00 +26°C° 0 mm 3 mps 729 mmHg 48%
18:00 +24°C° 0 mm 3 mps 728 mmHg 55%
19:00 +21°C° 0 mm 3 mps 728 mmHg 62%
20:00 +19°C° 0 mm 2 mps 728 mmHg 69%
21:00 +18°C° 0 mm 2 mps 728 mmHg 71%
22:00 +18°C° 0 mm 1 mps 728 mmHg 73%
23:00 +16°C° 0 mm 1 mps 728 mmHg 75%
Show more